Lapse_Rate
6.7 6.5 6.5 6.5 6.5 6.5 6.5 6.5 6.5 6.5 6.5 6.5 6.5 6.5 6.5 5.2 5.7 4.7 4.0 4.1 4.2 4.4 4.9 2.2 1.9 1.6 2.3 1.0 1.1 1.2 2.3 3.5 3.8 3.3 2.9 2.9 4.1 2.6 1.9 2.5 3.8 4.0 4.1 5.2
6.5 6.5 6.5 6.5 6.5 6.5 6.5 6.5 6.5 6.5 6.5 6.5 6.5 6.5 6.5 6.1 5.5 3.9 4.0 3.8 3.9 4.6 3.3 3.8 2.6 1.4 0.5 0.5 0.4 1.0 1.3 1.2 1.5 2.2 2.5 2.9 3.0 2.8 3.5 3.0 3.3 3.6 3.9 4.3
6.5 6.5 6.5 6.5 6.5 6.5 6.5 6.5 6.5 6.5 6.5 6.5 6.5 6.5 6.5 6.4 5.6 4.6 4.3 4.0 4.9 5.1 4.5 4.1 2.9 2.0 1.4 0.9 0.6 1.4 1.4 1.5 1.7 1.8 1.6 1.7 1.9 2.3 2.8 2.5 2.4 2.7 3.4 3.4
6.5 6.5 6.5 6.5 6.5 6.5 6.5 6.5 6.5 6.5 6.5 6.5 6.5 6.5 6.5 6.5 6.5 6.5 4.7 4.4 4.8 4.7 4.1 4.6 4.7 3.9 3.2 2.0 2.1 2.4 2.5 2.6 3.3 3.1 3.1 2.7 2.4 2.5 2.1 2.9 3.2 3.0 3.2 4.0
6.5 6.5 6.5 6.5 6.5 6.5 6.5 6.5 6.5 6.5 6.5 6.5 6.5 6.5 6.5 6.5 6.5 6.5 5.7 4.6 3.4 3.5 3.9 4.5 5.2 4.9 4.3 3.6 3.1 2.7 2.9 3.1 2.6 2.1 2.7 2.5 2.4 1.6 1.4 1.6 2.6 3.0 3.5 4.3
6.5 6.7 6.5 6.5 6.5 6.5 6.5 6.5 6.5 6.5 6.5 6.5 6.5 6.5 6.5 6.5 6.5 6.5 5.8 4.0 4.1 4.3 4.4 4.6 4.7 4.7 4.2 3.7 3.4 3.3 3.0 3.2 2.6 2.4 2.4 2.2 2.1 1.6 1.6 1.7 1.8 2.6 3.0 3.3
6.5 6.5 6.5 6.5 6.5 6.5 6.5 6.5 6.5 6.5 6.5 6.5 6.5 6.5 6.5 6.5 6.5 6.6 6.1 4.1 4.1 3.8 3.6 4.1 4.3 4.2 4.1 3.8 3.3 4.1 2.9 3.2 2.7 2.5 2.5 2.6 2.7 2.8 3.2 2.7 2.0 1.9 2.9 4.0
6.5 6.5 6.5 6.5 6.5 6.5 6.5 6.5 6.5 6.5 6.5 6.5 6.5 6.5 6.5 6.5 5.8 5.8 4.1 3.7 3.6 3.4 3.6 3.9 4.2 3.7 3.8 3.7 3.0 2.9 3.2 3.1 2.9 2.6 2.4 2.5 2.7 2.7 3.0 3.1 3.0 3.0 2.5 3.0
6.5 6.5 6.5 6.5 6.5 6.5 6.5 6.5 6.5 6.5 6.5 6.5 6.5 6.5 6.5 6.5 6.5 6.0 5.3 4.3 3.7 3.8 3.8 4.0 3.7 3.5 3.2 3.1 2.7 2.9 3.1 3.2 3.0 2.3 2.1 2.6 2.5 2.9 3.2 3.1 2.9 3.1 3.9 4.9
6.5 6.5 6.5 6.5 6.6 6.5 6.5 6.5 6.5 6.5 6.5 6.5 6.5 6.5 6.5 6.5 6.5 6.5 6.3 4.8 4.0 3.9 3.7 3.6 3.5 3.5 3.2 2.8 2.7 2.8 3.0 2.9 2.5 2.5 2.7 2.8 2.0 2.5 2.7 2.8 2.6 2.9 2.8 3.2
6.5 6.5 6.5 6.5 6.5 6.5 6.5 6.5 6.5 6.5 6.5 6.5 6.5 6.5 6.5 6.5 6.5 6.5 6.1 4.6 4.2 3.8 3.7 3.5 3.6 3.3 2.6 2.3 2.2 1.8 1.9 2.3 2.5 2.5 2.1 1.6 1.9 2.3 2.6 3.0 2.9 2.5 3.1 3.0
6.5 6.5 6.5 6.5 6.5 6.5 6.5 6.5 6.5 6.5 6.5 6.5 6.5 6.5 6.5 6.5 6.5 5.4 5.1 5.0 4.5 3.7 3.7 3.9 4.3 3.3 2.8 2.3 1.8 1.6 2.1 2.4 2.9 2.5 1.9 1.8 1.8 2.0 2.0 2.1 2.6 2.2 2.0 1.9
6.5 6.5 6.5 6.5 6.5 6.5 6.5 6.5 6.5 6.5 6.5 6.5 6.5 6.5 6.5 6.2 6.2 5.2 5.1 5.3 4.1 4.2 4.2 4.0 4.1 3.2 2.5 2.2 2.4 2.5 2.9 3.2 3.3 2.8 2.2 1.9 1.7 1.7 2.1 2.6 3.3 3.2 2.0 0.5
6.2 6.5 6.5 6.5 6.5 6.5 6.5 6.5 6.5 6.5 6.5 6.5 6.5 6.5 6.5 6.5 6.5 5.9 5.3 4.1 4.4 4.3 4.4 3.9 2.9 1.8 2.3 2.7 3.1 3.9 4.9 5.2 3.9 3.9 3.2 3.2 3.7 3.7 4.5 4.4 4.3 3.4 1.1 0.6
6.5 6.5 6.5 6.5 6.5 6.5 6.5 6.5 6.5 6.5 6.5 6.5 6.5 6.5 6.5 6.5 6.5 5.4 4.3 4.5 4.5 4.4 4.1 4.0 2.8 2.2 2.3 3.1 4.1 6.1 6.5 7.0 6.6 5.5 4.5 3.6 3.1 3.1 3.2 3.4 3.2 3.5 2.7 0.4
6.5 6.5 6.5 6.5 6.5 6.5 6.5 6.5 6.5 6.5 6.5 6.5 6.5 6.5 6.5 5.4 4.3 5.0 4.2 4.6 4.6 4.4 4.5 4.0 3.4 3.1 3.0 4.3 6.0 6.3 6.1 6.4 6.2 4.8 2.7 2.8 2.5 1.9 1.7 1.6 1.6 1.6 1.4 1.3
6.5 6.5 6.5 6.5 6.5 6.5 6.5 6.5 6.5 6.5 6.5 6.5 6.5 6.5 6.5 6.5 6.3 5.1 4.2 4.3 4.1 4.3 4.5 3.3 2.4 2.2 2.4 4.2 6.0 5.0 5.0 6.1 5.7 4.3 3.2 2.0 1.6 1.1 0.6 0.7 0.9 -0.1 -0.1 -0.1
6.5 6.5 6.5 6.5 6.5 6.5 6.5 6.5 6.5 6.5 6.5 6.5 6.5 6.5 6.3 6.0 4.8 4.3 3.5 3.2 3.7 4.1 3.4 2.3 1.3 1.1 1.9 3.3 4.4 3.9 4.6 4.8 4.4 3.9 3.2 2.5 1.8 1.4 1.1 1.2 0.9 0.6 0.4 0.1
6.5 6.5 6.5 6.5 6.5 6.5 6.5 6.5 6.5 6.5 6.5 6.5 6.5 6.5 5.9 5.1 5.1 5.9 4.5 3.6 3.1 3.3 2.2 1.7 1.3 0.6 1.4 2.1 3.5 4.5 4.5 4.4 4.4 4.1 3.5 2.2 1.9 1.2 1.0 0.9 0.7 0.6 0.1 0.0
6.5 6.5 6.5 6.5 6.5 6.5 6.5 6.5 6.4 6.5 6.5 6.5 6.3 6.5 6.2 5.3 6.5 6.5 3.8 3.4 2.6 2.1 1.7 1.0 0.6 0.2 0.9 0.7 2.3 3.2 2.7 3.8 3.7 2.8 2.0 2.0 1.6 1.3 0.9 0.6 0.5 0.8 0.9 0.6
6.5 6.5 6.5 6.5 6.5 6.5 6.5 6.4 6.2 6.5 6.5 6.0 5.5 5.5 5.0 6.5 5.2 3.3 3.1 3.2 2.8 2.1 1.6 1.5 0.8 0.2 0.7 0.6 1.3 2.3 2.3 1.7 1.8 1.6 1.5 1.6 1.1 0.7 0.8 0.8 1.0 0.6 -2.7 -3.4
6.5 6.5 6.5 6.5 6.5 6.5 6.1 6.4 6.5 6.3 5.8 5.5 5.0 4.6 4.2 3.6 3.2 2.9 3.2 3.0 2.7 1.7 2.0 1.8 0.6 0.2 0.4 0.6 1.9 2.1 1.5 1.6 1.9 2.1 1.8 1.7 1.2 1.9 1.0 0.1 -2.9 -3.6 -2.8 -0.2
6.5 6.5 6.5 6.5 6.5 6.0 5.1 6.1 5.6 4.9 5.1 5.9 4.7 4.5 3.5 3.7 4.2 4.0 3.5 2.8 2.5 1.9 1.9 1.8 1.1 0.6 0.4 1.6 1.3 0.7 1.4 0.7 1.6 0.7 0.7 0.3 0.5 0.7 0.2 -0.3 -0.6 -0.5 -0.3 0.5
6.5 5.6 6.5 6.5 6.5 6.4 4.9 5.0 5.1 5.5 4.9 5.0 4.5 4.5 4.6 4.7 4.3 3.8 3.7 3.3 3.4 3.2 2.5 1.9 1.6 0.9 0.4 0.5 0.6 0.4 0.3 0.8 0.8 0.3 0.5 0.6 0.2 0.4 0.2 0.1 0.0 -0.3 -0.2 -0.1
6.1 6.3 6.5 6.5 6.4 5.9 5.7 4.8 4.2 4.2 4.2 4.5 4.8 4.7 4.8 5.0 5.0 4.2 3.6 3.6 3.7 3.5 3.5 3.2 2.4 1.8 1.4 1.3 1.0 0.5 1.1 1.4 0.7 0.5 0.3 0.7 0.7 0.1 -0.3 0.1 -0.0 0.1 -0.3 0.5
5.6 6.5 6.5 6.5 5.0 5.3 4.9 3.7 3.9 3.4 4.2 4.3 4.5 5.0 5.0 4.6 3.8 4.4 3.7 3.4 3.2 3.2 3.0 3.6 3.5 3.0 2.8 3.0 2.1 1.4 1.5 1.1 0.5 0.1 -0.3 -0.3 -0.3 -0.6 -0.8 -0.6 -0.2 2.6 2.5 3.1
Wind_Speed
5 4 18 24 5 2 5 6 5 6 6 8 7 8 14 8 4 6 7 6 5 5 4 6 6 7 7 8 8 7 6 2 2 2 2 3 7 4 4 6 14 10 8 11
5 9 10 8 9 8 4 8 7 3 7 8 6 10 10 9 7 8 9 7 6 2 5 5 6 7 8 6 7 7 7 6 4 2 0 1 2 3 3 3 7 12 13 12
9 7 8 9 6 10 5 5 7 6 2 2 3 4 8 9 6 7 5 5 4 4 6 5 6 7 7 8 7 6 6 6 4 3 2 2 2 2 1 2 3 7 12 13
4 7 13 8 10 6 4 5 4 12 5 3 6 4 6 13 15 7 7 5 5 3 7 6 6 6 6 5 6 6 7 7 6 5 3 2 1 2 3 3 3 5 11 12
2 0 7 11 6 8 5 7 6 4 5 4 2 2 7 7 6 6 6 4 6 7 8 7 6 7 6 6 5 5 7 7 7 7 6 3 3 3 3 3 5 6 6 12
4 1 4 2 3 4 5 10 8 5 3 2 6 6 5 5 10 6 5 8 8 7 7 7 7 7 5 5 5 5 6 6 7 7 7 7 6 6 5 5 4 4 3 5
5 4 3 3 8 6 4 7 2 2 1 5 3 5 9 5 6 10 9 8 8 7 7 7 7 6 5 6 5 4 6 6 7 7 7 7 7 6 5 5 3 6 4 2
4 6 1 4 3 6 5 6 5 6 4 4 3 7 6 5 11 13 10 10 8 8 7 7 7 6 5 6 6 6 6 6 6 7 7 6 7 4 4 3 3 4 3 4
5 1 2 2 2 2 4 6 2 3 2 3 4 5 5 3 6 9 10 9 9 8 8 8 7 6 6 6 6 7 7 6 7 7 6 7 7 7 5 7 5 3 4 3
4 5 1 2 1 5 1 1 1 2 1 4 4 4 5 7 9 8 8 8 7 7 8 7 6 6 6 6 5 7 6 6 6 6 6 6 6 7 7 6 7 6 6 6
3 3 4 3 4 6 3 2 2 2 4 4 2 5 5 15 13 12 8 7 7 8 7 7 6 6 7 6 7 6 7 7 6 6 6 6 6 6 6 6 7 7 6 6
3 4 3 2 5 5 1 6 5 4 4 3 3 5 1 7 8 8 8 7 7 8 7 6 6 7 6 6 6 6 6 6 6 5 5 6 6 6 6 6 7 8 8 8
5 2 4 3 1 4 5 4 4 3 1 4 4 4 0 6 7 7 8 5 8 7 6 6 6 6 6 5 5 5 5 5 5 4 5 5 6 6 6 6 8 9 8 7
2 3 5 6 5 5 5 8 9 5 2 2 4 3 4 7 8 6 4 7 7 6 6 6 6 6 5 5 4 4 4 4 3 4 5 5 6 6 6 7 7 7 6 6
3 3 2 0 3 3 4 7 12 12 5 6 4 8 11 10 8 8 8 7 8 6 6 6 5 5 5 5 4 3 3 4 3 5 6 6 5 5 7 8 8 7 7 7
2 2 3 3 3 3 3 6 7 12 10 7 5 6 6 7 6 6 8 8 7 6 6 6 5 5 5 4 2 3 4 4 5 6 5 4 6 7 7 7 7 7 8 6
4 4 2 3 1 1 6 14 14 7 11 14 11 7 3 4 8 8 8 7 8 7 7 6 5 5 4 3 3 4 4 4 5 5 5 5 6 6 6 6 6 7 7 8
5 4 3 3 2 1 6 2 9 18 9 10 5 7 6 7 6 6 7 8 8 8 8 7 6 5 5 4 5 5 3 4 4 4 4 5 6 6 6 5 6 6 7 8
4 4 2 3 3 6 2 3 5 7 9 12 12 8 5 6 5 2 5 7 7 6 7 6 6 6 6 5 5 4 4 4 4 5 6 6 5 6 5 7 7 6 8 8
1 3 3 3 2 4 2 2 1 3 4 6 15 12 7 6 4 4 7 7 8 8 9 9 7 7 7 6 5 4 4 4 4 5 6 5 5 6 6 7 6 5 5 5
2 1 4 4 2 6 5 3 2 3 4 4 10 10 8 5 4 3 8 6 8 9 10 9 8 7 8 7 7 6 5 4 4 5 5 5 5 6 6 5 4 3 3 3
6 5 4 4 3 6 3 3 3 2 3 3 4 4 6 6 6 8 8 9 10 10 10 9 8 7 8 9 7 9 8 5 5 4 5 5 5 5 5 6 2 2 4 3
3 6 4 7 5 5 6 3 3 4 3 1 4 4 6 7 5 8 7 8 9 10 9 8 8 8 6 8 8 9 8 6 7 6 5 5 5 4 4 4 4 2 3 3
3 5 3 1 2 4 6 4 4 3 4 3 4 5 5 6 6 7 7 7 8 9 10 9 9 9 8 8 7 7 7 6 6 6 6 5 5 4 3 2 3 3 2 3
5 4 6 4 5 4 3 6 7 6 6 6 5 4 5 4 4 6 6 8 9 10 9 10 11 10 10 10 9 8 9 7 6 6 5 5 4 5 3 2 2 3 2 3
3 5 4 5 7 5 5 7 8 8 7 6 5 2 1 3 6 4 6 7 9 9 9 10 11 10 10 11 10 9 9 8 7 6 5 4 4 4 4 3 1 3 4 4
Wind_Direction
152 182 195 195 147 81 132 138 157 214 209 178 216 214 239 249 209 207 231 241 261 277 278 77 82 80 77 44 40 24 9 33 159 176 199 224 218 232 241 217 232 246 271 252
146 215 206 131 151 232 174 177 215 53 179 176 200 232 228 250 220 201 210 229 251 19 53 78 83 66 71 69 41 24 14 7 13 15 88 215 201 226 229 234 241 232 231 246
167 195 184 163 190 208 226 168 218 149 85 37 104 272 234 243 221 210 203 178 163 176 140 112 87 84 70 56 38 19 360 349 339 350 349 19 10 357 351 244 239 238 236 237
177 154 179 167 208 177 232 218 153 133 126 196 162 268 246 213 216 197 173 161 195 190 129 124 114 94 94 71 42 13 2 359 340 350 19 10 261 267 242 250 255 254 231 232
136 58 169 191 197 191 244 119 117 112 92 54 232 64 263 169 196 190 188 159 162 157 143 126 116 105 93 77 52 11 1 8 5 7 349 326 293 251 266 279 288 269 254 232
72 36 47 74 5 99 108 90 55 55 76 329 220 171 269 201 198 155 157 150 148 142 130 120 97 104 98 70 50 31 24 8 8 15 11 10 333 314 317 306 302 293 282 254
38 3 333 44 83 13 72 81 45 28 13 225 290 200 253 251 178 162 163 167 175 167 130 127 107 88 78 64 46 31 37 24 15 13 8 4 358 338 325 316 314 321 308 293
132 177 343 358 106 178 186 141 157 188 196 238 341 221 253 298 164 148 153 166 158 150 154 136 126 111 87 65 49 36 32 30 17 16 5 357 356 345 324 318 323 326 306 277
133 94 309 326 359 3 178 212 177 101 16 71 215 285 321 50 101 136 151 146 158 156 154 141 120 109 95 73 53 41 34 20 21 11 4 352 345 346 336 334 334 324 320 285
143 115 166 127 70 343 206 102 105 17 204 237 238 226 233 180 173 163 159 167 185 167 147 136 129 124 105 88 66 47 33 35 17 7 0 6 359 359 356 2 5 4 6 25
178 121 123 160 192 165 187 202 185 135 161 200 177 252 207 199 179 174 175 190 186 164 148 143 136 118 110 92 70 55 34 19 11 359 9 12 359 358 5 17 16 3 16 28
231 121 131 177 168 216 241 203 174 149 238 227 157 272 210 160 161 161 189 200 162 144 144 138 131 115 98 84 69 57 28 12 354 10 22 12 358 4 25 19 21 20 23 29
175 134 104 116 2 300 213 205 182 70 79 218 150 258 162 120 133 159 172 170 134 136 123 104 89 97 84 75 59 43 33 346 355 27 28 16 11 10 16 20 31 35 28 30
93 151 159 188 210 144 197 183 191 155 194 226 234 175 207 179 167 189 148 137 143 136 127 120 94 98 89 77 63 40 9 341 21 36 33 33 25 17 17 31 40 47 35 37
93 134 118 333 113 115 178 185 182 197 204 176 225 191 205 197 188 175 159 142 136 135 119 112 111 106 90 77 52 22 2 348 64 48 39 42 30 29 33 37 39 48 55 49
42 150 94 317 185 154 242 246 219 215 221 254 263 270 236 185 142 147 160 150 145 145 135 121 115 110 104 96 79 54 24 1 49 57 42 27 40 40 38 40 45 50 63 60
120 126 92 252 155 314 291 221 212 208 205 209 226 217 175 159 158 161 169 162 166 165 155 137 134 138 126 105 79 66 41 46 64 60 47 46 53 55 49 52 54 55 57 57
131 120 112 195 43 280 246 155 198 212 207 194 196 217 195 174 168 152 172 162 170 160 147 143 149 139 126 100 86 82 67 74 84 80 73 70 69 72 67 66 59 56 55 54
140 129 129 137 204 278 247 227 184 172 240 208 202 214 186 146 105 197 172 158 161 152 139 147 166 147 131 121 110 123 111 105 109 101 85 81 88 87 77 69 61 55 72 72
143 169 140 181 211 246 280 225 175 109 283 207 195 192 162 143 160 242 171 139 128 133 146 152 149 139 134 119 123 118 113 113 100 104 99 104 100 92 79 80 75 73 71 76
179 312 188 246 275 285 259 156 85 109 266 309 181 174 158 169 186 165 133 125 144 151 150 149 150 152 140 127 133 147 140 124 125 114 110 110 101 97 104 104 104 103 81 67
169 171 192 188 220 268 155 78 190 223 347 40 81 115 140 134 129 148 149 153 155 150 153 158 152 157 148 145 162 163 156 157 138 130 121 113 122 140 142 140 129 105 100 86
191 184 188 178 213 231 196 216 181 165 149 70 107 115 128 133 167 168 168 166 170 162 163 163 158 159 165 167 163 174 175 173 171 157 154 156 154 169 175 166 171 163 169 149
234 169 216 143 248 224 210 176 180 155 146 130 127 129 133 155 171 181 168 176 179 175 175 170 164 170 177 183 180 178 176 193 177 169 176 170 160 165 147 114 128 125 131 140
210 152 192 248 275 287 210 201 173 140 131 128 136 146 165 168 198 193 193 192 192 185 184 179 181 185 188 185 190 180 182 185 182 172 167 176 169 145 125 108 160 140 197 156
239 208 179 217 234 201 230 211 163 149 164 159 148 153 176 202 227 230 220 201 193 189 181 188 190 186 187 191 189 181 182 177 167 169 170 182 178 170 161 153 76 138 158 123